Regional Weather Roundup
Issued by NWS

Home | Current Version | Previous Version | Graphics & Text | Print | Product List | Glossary Off
Versions: 1 2 3 4 5 6 7 8 9 10 11 12 13 14 15 16 17 18 19 20 21 22 23 24 25 26 27 28 29 30 31 32 33 34 35 36 37 38 39 40 41 42 43 44 45 46 47 48 49 50

000
ASUS43 KDMX 230401
RWRIA

WEATHER ROUNDUP FOR IOWA
NATIONAL WEATHER SERVICE DES MOINES IA
1100 PM CDT TUE MAY 22 2018

NOTE: "FAIR" INDICATES FEW OR NO CLOUDS BELOW 12,000 FEET WITH NO
SIGNIFICANT WEATHER AND/OR OBSTRUCTIONS TO VISIBILITY.

* - THESE STATIONS ARE NOT NWS STATIONS...THUS NOT UNDER NWS
QUALITY CONTROL.  THEY ALSO DO NOT REPORT WEATHER SUCH
AS PRECIPITATION OR FOG.

IAZ001>003-012>014-020>022-031>034-043>046-230500-
   NORTHWEST IOWA

CITY           SKY/WX    TMP DP  RH WIND       PRES   REMARKS
CARROLL *      CLOUDY   N/A N/A N/A SE9       30.01S
DENISON *      MOCLDY    70  64  83 SE12G17   30.01R
LE MARS *      PTCLDY    70  63  78 SE8       29.97S
ORANGE CITY *  PTCLDY    72  63  73 SE7       29.99S
SHELDON *      CLOUDY    72  64  78 SE12      29.98R
SIOUX CITY     CLEAR     68  64  87 SE9       29.96R
SPENCER        CLOUDY    72  63  73 S12       30.00R
STORM LAKE *   CLOUDY    70  63  78 SE12      30.01S
$$

IAZ055>058-069>071-079>083-090>094-230500-
   SOUTHWEST IOWA

CITY           SKY/WX    TMP DP  RH WIND       PRES   REMARKS
ATLANTIC *     CLOUDY    72  66  83 S5        30.01R
AUDUBON *      CLOUDY    66  63  88 CALM      30.03S
CLARINDA *       N/A     70  61  73 S6        30.03S
COUNCIL BLFS * PTCLDY    72  70  94 SE8       29.99R
CRESTON *      PTCLDY    68  64  88 SE7       30.05R
HARLAN  *      MOCLDY    70  66  88 S3        30.04R
LAMONI         CLEAR     72  61  68 SE7       30.04R
RED OAK *      CLEAR     70  63  78 S6        30.01R
SHENANDOAH *   CLEAR     72  63  73 SE9       30.00S
$$

IAZ047>049-059>061-072>074-084-230500-
   CENTRAL IOWA

CITY           SKY/WX    TMP DP  RH WIND       PRES   REMARKS
AMES           MOCLDY    69  62  78 SE6       30.03S
ANKENY *       PTCLDY    72  63  73 SE7       30.04S
BOONE *        CLOUDY    70  63  78 SE10      30.03R
CHARITON *     CLEAR     68  64  88 SE6       30.04S
DES MOINES     PTCLDY    74  63  68 E6        30.03R
GRINNELL*      MOCLDY    69  62  77 SE6       30.08R
KNOXVILLE *    CLOUDY    72  63  73 E5        30.04R
MARSHALLTOWN   CLOUDY    68  64  87 SE8       30.05R
NEWTON *       MOCLDY    68  64  88 E7        30.06R
PELLA *        CLEAR     71  62  73 E3        30.06S
PERRY *        CLOUDY    71  64  76 SE7       30.03R
$$

IAZ004>006-015-016-023>025-035-036-230500-
   NORTH CENTRAL IOWA

CITY           SKY/WX    TMP DP  RH WIND       PRES   REMARKS
ALGONA *       CLOUDY    72  63  73 SE10      30.03R
CLARION *      CLOUDY    70  63  78 SE12      30.04R
ESTHERVILLE    CLOUDY    67  61  81 SE8       30.01R
FORT DODGE *   TSTM      72  62  71 SE5       30.04R
MASON CITY     PTCLDY    69  60  73 SE9       30.06R
FOREST CITY *  FAIR      68  61  77 SE8       30.04S
IOWA FALLS *   FAIR      69  64  85 SE8       30.06S
$$

IAZ007>011-017>019-026>030-037>042-050>054-066-230500-
   NORTHEAST IOWA

CITY           SKY/WX    TMP DP  RH WIND       PRES   REMARKS
CEDAR RAPIDS   FAIR      65  61  87 E9        30.07R
CHARLES CITY * FAIR      64  59  82 E8        30.08R
CLINTON *      FAIR     N/A N/A N/A E6        30.09S
DECORAH *      CLOUDY    63  61  94 E7        30.08S
DUBUQUE        FAIR      61  56  83 E5        30.10R
MONTICELLO *   FAIR      63  61  94 E5        30.08S
OELWEIN *      MOCLDY    64  61  88 SE9       30.09R
WATERLOO       FAIR      67  61  81 SE8       30.06R
$$

IAZ064-065-067-068-078-230500-
   EAST CENTRAL IOWA

CITY           SKY/WX    TMP DP  RH WIND       PRES   REMARKS
DAVENPORT      FAIR      63  58  83 E6        30.11R
IOWA CITY      FAIR      69  60  73 E7        30.08R
MUSCATINE *    FAIR      66  61  82 CALM      30.08R
QUAD CITIES    FAIR      65  60  84 E6        30.08R
$$

IAZ062-063-075>077-085>089-095>099-230500-
   SOUTHEAST IOWA

CITY           SKY/WX    TMP DP  RH WIND       PRES   REMARKS
BURLINGTON     CLEAR     70  60  70 E6        30.07R
FAIRFIELD *    PTCLDY    68  61  77 SE7       30.06S
FORT MADISON * CLEAR     70  63  78 E3        30.08R
KEOKUK *       CLEAR     70  63  78 E6        30.07R
CENTERVILLE *    N/A     66  66 100 CALM      30.07S
OTTUMWA        PTCLDY    69  62  78 E6        30.05R
WASHINGTON *   PTCLDY    68  66  94 E5        30.08S
$$

ABBREVIATIONS USED IN REMARKS
   TC - TEMPERATURES IN CELSIUS
  WCI - WIND CHILL INDEX
   HX - HEAT INDEX
  VSB - VISIBILITY
$$




USA.gov is the U.S. government's official web portal to all federal, state and local government web resources and services.